Regional Weather Roundup
Issued by NWS State College, PA

Home | Current Version | Previous Version | Text Only | Print | Product List | Glossary Off
Versions: 1 2 3 4 5 6 7 8 9 10 11 12 13 14 15 16 17 18 19 20 21 22 23 24 25 26 27 28 29 30 31 32 33 34 35 36 37 38 39 40 41 42 43 44 45 46 47 48 49 50

000
ASUS41 KCTP 100910
RWRCTP

REGIONAL WEATHER ROUNDUP
NATIONAL WEATHER SERVICE STATE COLLEGE PA
400 AM EST WED FEB 10 2016

Note: "fair" indicates few or no clouds below 12,000 feet with no
significant weather and/or obstructions to visibility.

* = STATION THAT DOES NOT REPORT PRECIPITATION /E.G. RAIN...SNOW...ETC/
    THUNDER OR FOG.

PAZ002>004-007>009-013>016-020>023-029>032-101000-
WESTERN PENNSYLVANIA

CITY           SKY/WX    TMP DP  RH WIND       PRES   REMARKS
ERIE           FLURRIES  27  21  78 W17G28    29.63S WCI  14
MEADVILLE      LGT SNOW  24  19  81 W13G21    29.62R WCI  12
FRANKLIN*      CLOUDY    23  18  80 SW8       29.64R WCI  14
NEW CASTLE     LGT SNOW  23  19  86 SW9       29.70R FOG     WCI  13
BEAVER COUNTY  NOT AVBL
BUTLER*        MOCLDY    21  18  86 W15G21    29.72R WCI   8
PITTSBURGH INT LGT SNOW  23  16  74 W12G22    29.70S WCI  12
PITTSBURGH     LGT SNOW  24  19  81 W8        29.70S
INDIANA*       CLOUDY    23  21  93 W12G20    29.68S FOG     WCI  12
LATROBE        FLURRIES  23  19  86 SW12      29.71S WCI  12
WASHINGTON CO* CLOUDY    23  16  74 SW14      29.73S WCI  11
$$

PAZ004>006-010>012-017>019-024>028-033>037-041-042-045-046-049>053-101000-
CENTRAL PENNSYLVANIA

CITY           SKY/WX    TMP DP  RH WIND       PRES   REMARKS
BRADFORD       LGT SNOW  22  18  85 W7        29.51S FOG     WCI  13
DUBOIS         LGT SNOW  22  19  89 W14       29.58R VSB 1   WCI   9
CLEARFIELD     FLURRIES  24  17  74 W9G18     29.60R WCI  14
JOHNSTOWN      MIX PCPN  20  14  77 W18G26    29.58S WCI   5
ALTOONA        CLOUDY    24  17  74 W16       29.63R WCI  11
STATE COLLEGE  CLOUDY    27  20  76 W13       29.60S
WILLIAMSPORT   CLOUDY    31  22  69 W10       29.58S
SELINSGROVE    CLOUDY    30  22  72 VRB6      29.62S
FT INDIANTOWN  MIX PCPN  30  27  86 SW8       29.61R
CAPITAL CITY   CLOUDY    28  23  81 W7        29.64S
HARRISBURG     FLURRIES  30  24  78 W10       29.64R
YORK           FLURRIES  27  22  81 W8        29.64S
$$

PAZ038>040-043-044-047-048-054-055-060>062-067>071-101000-
EASTERN PENNSYLVANIA

CITY           SKY/WX    TMP DP  RH WIND       PRES   REMARKS
SCRANTON       LGT SNOW  29  27  92 SW7       29.53S FOG
MOUNT POCONO   CLOUDY    26  23  88 W9        29.47S
ALLENTOWN      CLOUDY    30  26  85 SW8       29.58S FOG
QUAKERTOWN*    CLOUDY    30  28  93 CALM      29.59R
READING        LGT SNOW  30  25  81 W6        29.60S
LANCASTER      CLOUDY    28  25  88 W12       29.62S
COATESVILLE    LGT SNOW  27  28 100 W12       29.61S
POTTSTOWN      LGT SNOW  28  27  96 W5        29.62R FOG
BLUE BELL        N/A     30  28  93 CALM      29.60S
DOYLESTOWN     CLOUDY    28  27  96 W5        29.58S
WILLOW GROVE   NOT AVBL
NORTH PHILA    CLOUDY    32  28  85 W12       29.62S FOG
PHILADELPHIA   LGT SNOW  32  27  81 W8        29.63S
$$



USA.gov is the U.S. government's official web portal to all federal, state and local government web resources and services.